TimeEDT,TemperatureF,Dew PointF,Humidity,Sea Level PressureIn,VisibilityMPH,Wind Direction,Wind SpeedMPH,Gust SpeedMPH,PrecipitationIn,Events,Conditions,WindDirDegrees,DateUTC
12:15 AM,57.2,55.4,94,30.05,4.0,Calm,Calm,-,N/A,,Overcast,0,2012-10-03 04:15:00
12:55 AM,57.2,55.4,94,30.05,4.0,Calm,Calm,-,N/A,,Overcast,0,2012-10-03 04:55:00
1:15 AM,57.2,55.4,94,30.04,3.0,Calm,Calm,-,N/A,,Overcast,0,2012-10-03 05:15:00
1:35 AM,57.2,55.4,94,30.05,3.0,Calm,Calm,-,0.01,,Overcast,0,2012-10-03 05:35:00
1:55 AM,57.2,55.4,94,30.05,4.0,Calm,Calm,-,0.02,,Overcast,0,2012-10-03 05:55:00
2:15 AM,57.2,55.4,94,30.04,3.0,Calm,Calm,-,N/A,,Overcast,0,2012-10-03 06:15:00
2:35 AM,57.2,55.4,94,30.04,3.0,Calm,Calm,-,N/A,,Overcast,0,2012-10-03 06:35:00
2:55 AM,57.2,55.4,94,30.03,5.0,Calm,Calm,-,N/A,,Overcast,0,2012-10-03 06:55:00
3:35 AM,57.2,57.2,100,30.04,4.0,Calm,Calm,-,N/A,,Overcast,0,2012-10-03 07:35:00
3:55 AM,57.2,55.4,94,30.04,1.8,Calm,Calm,-,N/A,,Overcast,0,2012-10-03 07:55:00
4:15 AM,57.2,55.4,94,30.04,3.0,Calm,Calm,-,0.01,,Overcast,0,2012-10-03 08:15:00
4:35 AM,57.2,55.4,94,30.05,2.5,Calm,Calm,-,0.01,,Overcast,0,2012-10-03 08:35:00
4:55 AM,57.2,55.4,94,30.05,1.8,Calm,Calm,-,0.01,,Overcast,0,2012-10-03 08:55:00
5:15 AM,57.2,55.4,94,30.05,2.0,Calm,Calm,-,N/A,,Overcast,0,2012-10-03 09:15:00
5:55 AM,57.2,55.4,94,30.07,3.0,Calm,Calm,-,N/A,,Overcast,0,2012-10-03 09:55:00
6:15 AM,57.2,55.4,94,30.06,3.0,Calm,Calm,-,N/A,,Overcast,0,2012-10-03 10:15:00
6:55 AM,57.2,57.2,100,30.07,2.0,Calm,Calm,-,N/A,,Overcast,0,2012-10-03 10:55:00
7:15 AM,57.2,55.4,94,30.08,1.5,Calm,Calm,-,N/A,,Overcast,0,2012-10-03 11:15:00
7:35 AM,59.0,57.2,94,30.07,1.5,Calm,Calm,-,N/A,,Overcast,0,2012-10-03 11:35:00
8:15 AM,59.0,57.2,94,30.09,3.0,Calm,Calm,-,N/A,,Overcast,0,2012-10-03 12:15:00
8:35 AM,59.0,57.2,94,30.09,8.0,Calm,Calm,-,N/A,,Overcast,0,2012-10-03 12:35:00
8:55 AM,59.0,57.2,94,30.09,7.0,Calm,Calm,-,N/A,,Overcast,0,2012-10-03 12:55:00
9:15 AM,59.0,57.2,94,30.09,10.0,Calm,Calm,-,N/A,,Overcast,0,2012-10-03 13:15:00
9:35 AM,60.8,57.2,88,30.10,10.0,Calm,Calm,-,N/A,,Overcast,0,2012-10-03 13:35:00
10:15 AM,60.8,57.2,88,30.10,8.0,Calm,Calm,-,N/A,,Overcast,0,2012-10-03 14:15:00
10:35 AM,60.8,57.2,88,30.10,4.0,Calm,Calm,-,N/A,,Overcast,0,2012-10-03 14:35:00
10:55 AM,60.8,57.2,88,30.10,6.0,Calm,Calm,-,N/A,,Overcast,0,2012-10-03 14:55:00
11:15 AM,60.8,59.0,94,30.11,3.0,Calm,Calm,-,N/A,,Overcast,0,2012-10-03 15:15:00
11:35 AM,60.8,59.0,94,30.10,1.8,Calm,Calm,-,N/A,,Overcast,0,2012-10-03 15:35:00
12:15 PM,62.6,59.0,88,30.10,2.5,Calm,Calm,-,N/A,,Overcast,0,2012-10-03 16:15:00
12:55 PM,62.6,60.8,94,30.09,9.0,Calm,Calm,-,N/A,,Overcast,0,2012-10-03 16:55:00
1:15 PM,62.6,60.8,94,30.09,10.0,Calm,Calm,-,N/A,,Overcast,0,2012-10-03 17:15:00
1:55 PM,64.4,60.8,88,30.09,10.0,Calm,Calm,-,N/A,,Overcast,0,2012-10-03 17:55:00
2:15 PM,64.4,60.8,88,30.08,10.0,Calm,Calm,-,N/A,,Overcast,0,2012-10-03 18:15:00
2:55 PM,64.4,60.8,88,30.08,10.0,Calm,Calm,-,N/A,,Overcast,0,2012-10-03 18:55:00
3:15 PM,64.4,60.8,88,30.08,10.0,Calm,Calm,-,N/A,,Overcast,0,2012-10-03 19:15:00
3:35 PM,64.4,60.8,88,30.08,10.0,Calm,Calm,-,N/A,,Overcast,0,2012-10-03 19:35:00
4:15 PM,64.4,60.8,88,30.09,10.0,Calm,Calm,-,N/A,,Overcast,0,2012-10-03 20:15:00
4:36 PM,64.4,60.8,88,30.09,10.0,Calm,Calm,-,N/A,,Overcast,0,2012-10-03 20:36:00
4:55 PM,64.4,60.8,88,30.09,10.0,NE,4.6,-,N/A,,Overcast,40,2012-10-03 20:55:00
5:35 PM,64.4,60.8,88,30.10,10.0,East,3.5,-,N/A,,Overcast,80,2012-10-03 21:35:00
5:55 PM,64.4,60.8,88,30.11,10.0,Calm,Calm,-,N/A,,Overcast,0,2012-10-03 21:55:00
6:15 PM,62.6,60.8,94,30.11,10.0,Calm,Calm,-,N/A,,Overcast,0,2012-10-03 22:15:00
6:35 PM,62.6,60.8,94,30.11,10.0,Calm,Calm,-,N/A,,Overcast,0,2012-10-03 22:35:00
6:55 PM,62.6,60.8,94,30.12,10.0,Calm,Calm,-,N/A,,Overcast,0,2012-10-03 22:55:00
7:15 PM,62.6,60.8,94,30.12,10.0,Calm,Calm,-,N/A,,Overcast,0,2012-10-03 23:15:00
7:35 PM,62.6,60.8,94,30.12,10.0,Calm,Calm,-,N/A,,Overcast,0,2012-10-03 23:35:00
7:55 PM,62.6,60.8,94,30.12,10.0,Calm,Calm,-,N/A,,Overcast,0,2012-10-03 23:55:00
8:35 PM,62.6,60.8,94,30.13,5.0,Calm,Calm,-,N/A,,Overcast,0,2012-10-04 00:35:00
8:55 PM,62.6,60.8,94,30.14,5.0,Calm,Calm,-,N/A,,Overcast,0,2012-10-04 00:55:00
9:15 PM,62.6,60.8,94,30.14,3.0,Calm,Calm,-,N/A,,Overcast,0,2012-10-04 01:15:00
9:35 PM,62.6,60.8,94,30.14,8.0,Calm,Calm,-,N/A,,Overcast,0,2012-10-04 01:35:00
9:55 PM,62.6,60.8,94,30.14,8.0,Calm,Calm,-,N/A,,Overcast,0,2012-10-04 01:55:00
10:15 PM,62.6,60.8,94,30.14,7.0,Calm,Calm,-,N/A,,Overcast,0,2012-10-04 02:15:00
10:35 PM,62.6,60.8,94,30.14,7.0,Calm,Calm,-,N/A,,Overcast,0,2012-10-04 02:35:00
10:55 PM,62.6,60.8,94,30.15,9.0,Calm,Calm,-,N/A,,Overcast,0,2012-10-04 02:55:00
11:35 PM,62.6,60.8,94,30.15,9.0,Calm,Calm,-,N/A,,Overcast,0,2012-10-04 03:35:00
11:55 PM,62.6,60.8,94,30.15,7.0,Calm,Calm,-,N/A,,Overcast,0,2012-10-04 03:55:00